Weather History for Christchurch, New Zealand

Change the Weather History Date:

Thursday, July 25, 2013

  Actual Average Record
Temperature  
Mean Temperature 46 °F -  
Max Temperature 59 °F 51 °F - ()
Min Temperature 32 °F 34 °F - ()
Degree Days  
Heating Degree Days 20    
Moisture  
Dew Point 37 °F    
Average Humidity 81    
Maximum Humidity 100    
Minimum Humidity 55    
Precipitation  
Precipitation 0.00 in - - ()
Sea Level Pressure  
Sea Level Pressure 29.57 in    
Wind  
Wind Speed 3 mph ()    
Max Wind Speed 7 mph    
Max Gust Speed -    
Visibility 6.2 miles    
Events Fog    
T = Trace of Precipitation, MM = Missing Value Source: Averaged Metar Reports

Daily Weather History Graph

Daily Weather History Graph

Search for Another Location

Airport:

Trip Planner

Search our weather history database for the weather conditions in past years. The results will help you decide how hot, cold, wet, or windy it might be!

Date:

Astronomy

Jul. 25, 2013 Rise Set
Actual Time 7:50 AM NZST 5:22 PM NZST
Civil Twilight 7:19 AM NZST 5:53 PM NZST
Nautical Twilight 6:44 AM NZST 6:28 PM NZST
Astronomical Twilight 6:10 AM NZST 7:02 PM NZST
Moon 8:35 PM NZST (7/25) 8:49 AM NZST (7/25)
Length of Visible Light 10h 34m
Length of Day
9h 31m
Waning Gibbous, 93% of the Moon is Illuminated
Jul 25
Waning Gibbous
Jul 30
Last Quarter
Aug 7
New
Aug 14
First Quarter
Aug 21
Full

Hourly Weather History & Observations

Time (NZST) Temp. Windchill Dew Point Humidity Pressure Visibility Wind Dir Wind Speed Gust Speed Precip Events Conditions
12:00 AM 41.0 °F - 39.2 °F 93% 29.53 in 6.2 mi NNE 1.2 mph - N/A Fog Unknown
1:00 AM 35.6 °F - 33.8 °F 93% 29.53 in 6.2 mi SE 1.2 mph - N/A Fog Unknown
2:00 AM 33.8 °F 30.8 °F 32.0 °F 93% 29.53 in 6.2 mi NE 3.5 mph - N/A Fog Unknown
3:00 AM 33.8 °F - 32.0 °F 93% 29.53 in - ENE 1.2 mph - N/A   Clear
4:00 AM 33.8 °F 30.8 °F 32.0 °F 93% 29.53 in - NNE 3.5 mph - N/A   Clear
5:00 AM 33.8 °F - 32.0 °F 93% 29.53 in - East 2.3 mph - N/A   Clear
6:00 AM 33.8 °F - 32.0 °F 93% 29.53 in - Calm Calm - N/A   Clear
7:00 AM 32.0 °F - 32.0 °F 100% 29.53 in - SSE 1.2 mph - N/A   Clear
8:00 AM 33.8 °F - 33.8 °F 100% 29.53 in - Variable 2.3 mph - N/A   Clear
9:00 AM 35.6 °F 32.8 °F 33.8 °F 93% 29.56 in - North 3.5 mph - N/A   Clear
10:00 AM 46.4 °F - 41.0 °F 81% 29.56 in - ENE 2.3 mph - N/A   Clear
11:00 AM 53.6 °F - 42.8 °F 67% 29.56 in - ENE 6.9 mph - N/A   Clear
12:00 PM 55.4 °F - 44.6 °F 67% 29.56 in - East 6.9 mph - N/A   Clear
1:00 PM 57.2 °F - 41.0 °F 55% 29.56 in - East 6.9 mph - N/A   Clear
2:00 PM 57.2 °F - 42.8 °F 59% 29.56 in - ENE 6.9 mph - N/A   Clear
3:00 PM 59.0 °F - 44.6 °F 59% 29.56 in - NE 5.8 mph - N/A   Clear
4:00 PM 57.2 °F - 44.6 °F 63% 29.56 in - NE 5.8 mph - N/A   Clear
5:00 PM 53.6 °F - 42.8 °F 67% 29.59 in - NNE 5.8 mph - N/A   Clear
6:00 PM 48.2 °F - 42.8 °F 82% 29.59 in - NNE 1.2 mph - N/A   Clear
7:00 PM 42.8 °F - 39.2 °F 87% 29.62 in - ESE 2.3 mph - N/A   Clear
8:00 PM 41.0 °F - 35.6 °F 81% 29.65 in - WNW 1.2 mph - N/A   Clear
9:00 PM 41.0 °F - 37.4 °F 87% 29.68 in - North 1.2 mph - N/A   Clear
10:00 PM 39.2 °F 35.0 °F 32.0 °F 75% 29.68 in - East 5.8 mph - N/A   Clear
11:00 PM 39.2 °F 35.0 °F 30.2 °F 70% 29.71 in - ESE 5.8 mph - N/A   Clear